Weather Service Report


917 
ASUS46 KSTO 201809
RWRCA 

NORTHERN AND CENTRAL CA REGIONAL WEATHER ROUNDUP
NATIONAL WEATHER SERVICE SACRAMENTO CA 
1100 AM PDT SAT SEP 20 2014

NOTE: FAIR INDICATES FEW OR NO CLOUDS BELOW 12,000 FEET WITH NO
SIGNIFICANT WEATHER AND/OR OBSTRUCTIONS TO VISIBILITY.

CAZ001-003-201900-
NORTHWEST AREA
  
CITY           SKY/WX    TMP DP  RH WIND       PRES   REMARKS
CRESCENT CITY  CLOUDY    60  59  96 S13       29.91R FOG              
ARCATA         NOT AVBL                                               
SHELTER COVE   NOT AVBL                                               
UKIAH          SUNNY     68  57  68 CALM      29.93F                  
$$

CAZ006-505>513-201900-
BAY AREA
  
CITY           SKY/WX    TMP DP  RH WIND       PRES   REMARKS
SANTA ROSA     CLOUDY    63  60  90 S5        29.95R                  
SAN RAFAEL     N/A       63  MM  MM MISG
NAPA           CLOUDY    66  59  78 W7        29.95R                  
CONCORD        SUNNY     72  59  63 NW9       29.93S                  
OAKLAND CITY   N/A       64  MM  MM MISG
OAKLAND        CLOUDY    67  60  78 W3        29.95S                  
SAN FRAN CITY  N/A       63  MM  88 MISG
SAN FRAN ARPT  MOSUNNY   71  62  73 N3        29.95R                  
LIVERMORE      SUNNY     72  60  66 CALM      29.93S                  
HAYWARD        CLOUDY    70  63  78 NW5       29.95R                  
REDWOOD CITY   N/A       MM  MM  MM MISG
MOFFETT ARPT   PTSUNNY   71  60  68 CALM      29.95S                  
SAN JOSE ARPT  MOSUNNY   67  60  78 CALM      29.95R                  
$$
CAZ034-037-514>518-201900-
CENTRAL COAST
  
CITY           SKY/WX    TMP DP  RH WIND       PRES   REMARKS
WATSONVILLE    CLOUDY    66  60  81 CALM      29.97S                  
SALINAS        CLOUDY    65  59  81 W3        29.96S                  
MONTEREY       CLOUDY    65  59  81 W6        29.97R                  
PT PIEDRAS BLS NOT AVBL                                               
SAN LUIS OBISP PTSUNNY   68  60  75 CALM      29.97S                  
SANTA MARIA    PTSUNNY   68  59  73 CALM      29.98S                  
$$
CAZ015-016-201900-
NORTHERN SACRAMENTO VALLEY
  
CITY           SKY/WX    TMP DP  RH WIND       PRES   REMARKS
REDDING        SUNNY     80  55  42 CALM      29.88F                  
RED BLUFF      SUNNY     82  55  39 CALM      29.89F                  
OROVILLE       SUNNY     79  56  45 S5        29.91S                  
$$
CAZ016>018-201900-
SOUTHERN SACRAMENTO VALLEY
  
CITY           SKY/WX    TMP DP  RH WIND       PRES   REMARKS
AUBURN         MOSUNNY   77  54  44 CALM      29.95S                  
BEALE AFB      SUNNY     77  57  50 VRB3      29.89S                  
LINCOLN        FAIR      75  54  46 CALM      29.90S                  
MARYSVILLE     MOSUNNY   76  58  53 NW3       29.90S                  
SAC INTL ARPT  MOSUNNY   71  59  65 CALM      29.90S                  
MATHER AIRPORT MOSUNNY   73  59  60 CALM      29.91S                  
DOWNTOWN SAC   N/A       75  MM  MM MISG
SAC EXEC ARPT  SUNNY     72  59  63 SW5       29.91R                  
VACAVILLE      SUNNY     77  56  48 S3        29.92S                  
TRAVIS AFB     SUNNY     73  61  67 SW12      29.90S                  
$$
CAZ019>021-201900-
SAN JOAQUIN VALLEY
  
CITY           SKY/WX    TMP DP  RH WIND       PRES   REMARKS
STOCKTON       SUNNY     79  59  50 NW9       29.91R                  
MODESTO        SUNNY     77  57  50 NW5       29.90S                  
MERCED         SUNNY     81  56  42 NW9       29.90S                  
LEMOORE        MOSUNNY   83  57  41 N12       29.90S                  
FRESNO         MOSUNNY   82  57  42 VRB3      29.90F                  
HANFORD        SUNNY     82  56  40 NW9       29.90S                  
PORTERVILLE    SUNNY     81  57  44 S8        29.92S                  
BAKERSFIELD    SUNNY     79  56  45 VRB5      29.91F                  
$$
CAZ011-012-071-201900-
NORTHERN MOUNTAINS
  
CITY           SKY/WX    TMP DP  RH WIND       PRES   REMARKS
YREKA          SUNNY     75  46  35 CALM      30.05F                  
MOUNT SHASTA   SUNNY     79  48  33 VRB5      30.06F                  
ALTURAS        SUNNY     73  39  29 S3        30.13F                  
$$
CAZ011-012-071-201900-
SIERRA NEVADA MTNS
  
CITY           SKY/WX    TMP DP  RH WIND       PRES   REMARKS
BLUE CANYON    SUNNY     73  38  27 W3        30.14R                  
TRUCKEE        NOT AVBL                                               
TAHOE VLY ARPT SUNNY     76  33  21 NE12G20   30.19S                  
MAMMOTH LAKES  FAIR      70  32  24 E20G25    30.25F                  
$$
  

Return to Home page


Western Regional Climate Center, wrcc@dri.edu